COSMOS 1290

Satellite information

Favourite Embed

Satellite Type and Status

PAYLOADIN ORBIT

Key statistics

Satellite COSMOS 1290 at a glance.

Uptime

16103

Days in orbit

Revolutions

≈ 12.5

Per day

Orbit

LEO

Low Earth Orbit

Inclination

74.0

Latest

Satellite identification and parameters

Extended collection of information and parameters for COSMOS 1290.

Object identification

Identified? True

Debris? False

Object name: COSMOS 1290

International designator: 1981-074D

Object number (NORAD): 12639

Object ID (CCSDS): 12639

Country: COMMONWEALTH OF INDEPENDENT STATES (CIS)

Current information (Y/N): Y

RCS size: MEDIUM

Orbital parameters

Period: 114.94 minutes

Inclination: 74.0301 deg

SMA: 7830.821 km

Apoapsis: 1464.964 km

Periapsis: 1440.407 km

RAAN: 238.9264 deg

Eccentricy: 0.00156801

Argument of periapsis: 249.1795 deg

Mean anomaly: 285.1903 deg

Mean motion: 12.52829136 rev/day

Mean motion (dot): -0.00000014 rev/day2

B* drag term: 0.000010158691 1/REarth

Two-line elements (TLE)

Creation date: Sept. 7, 2025, 3:09 a.m.

Reference frame: TEME

Reference center: EARTH

Epoch: Sept. 6, 2025, 6:25 p.m. UTC

TLE line 0: 0 COSMOS 1290

TLE line 1: 1 12639U 81074D 25249.76741150 -.00000014 00000-0 10159-4 0 9990

TLE line 2: 2 12639 74.0301 238.9264 0015680 249.1795 285.1903 12.52829136 16160

Live tracking on map

Real-time ground track for satellite COSMOS 1290.

In-orbit conjunctions

There are no conjunctions computed for COSMOS 1290, at the moment. Check back to stay up to date, as we update our databases every day.

Go to all conjunctions

Associated space launch

Military communications satellites

COSMOS 1290 was lifted into orbit during the mission ‘Kosmos-3M | Strela-1M 217-224’, on board a Kosmos-3M space rocket.

The launch took place on Aug. 6, 1981, 11:49 a.m. from 132/2.

For more information about the launch, click the button.

Launch to space Kosmos-3M | Strela-1M 217-224
Kosmos-3M | Strela-1M 217-224

Agency: N/A

Status: Launch Successful

Launch date: Aug. 6, 1981, 11:49 a.m. UTC

Rocket: Kosmos-3M

Launch pad: 132/2

Location: Plesetsk Cosmodrome, Russian Federation

...

Latest news about this satellite

There are no fresh news available about this satellite. Check back as we update our databases every day.


Newsletter sign-up

Weekly statistics, charts and insights to help you stay on top of the space industry.